When you browse on this site, cookies collect data to enhance your experience and personalize the content and advertising you see.
Visit our Privacy Policy to learn more. By continuing to use the site, you agree to this use of cookies and data.
  • In Switzerland
  • List of Countries
  • For 7 days
  • Water Temperature
  • Satellite Maps
  • Weather Map
  • Weather Widgets
  • user-avatar
    Login

    Hourly Weather Djelfa

    Today, 20 January, Sunday

    Time Temperature Precipitation Wind Pressure Humidity
    00:00 +1°C° 0 mm 4 mps 661 mmHg 90%
    01:00 +1°C° 0 mm 5 mps 661 mmHg 91%
    02:00 +1°C° 0 mm 5 mps 661 mmHg 92%
    03:00 +1°C° 0 mm 5 mps 660 mmHg 93%
    04:00 +1°C° 0 mm 4 mps 660 mmHg 93%
    05:00 +1°C° 0 mm 4 mps 660 mmHg 94%
    06:00 +1°C° 0 mm 4 mps 660 mmHg 94%
    07:00 +2°C° 0.4 mm 5 mps 660 mmHg 92%
    08:00 +3°C° 0.4 mm 6 mps 660 mmHg 89%
    09:00 +4°C° 0.4 mm 6 mps 660 mmHg 87%
    10:00 +4°C° 0.6 mm 7 mps 660 mmHg 84%
    11:00 +5°C° 0.6 mm 8 mps 659 mmHg 82%
    12:00 +5°C° 0.6 mm 9 mps 659 mmHg 79%
    13:00 +5°C° 0.1 mm 9 mps 659 mmHg 77%
    14:00 +6°C° 0.1 mm 8 mps 659 mmHg 74%
    15:00 +6°C° 0.1 mm 8 mps 658 mmHg 71%
    16:00 +5°C° 0.3 mm 8 mps 658 mmHg 74%
    17:00 +5°C° 0.3 mm 8 mps 658 mmHg 77%
    18:00 +4°C° 0.3 mm 8 mps 658 mmHg 79%
    19:00 +4°C° 0 mm 8 mps 658 mmHg 79%
    20:00 +2°C° 0 mm 9 mps 658 mmHg 79%
    21:00 +1°C° 0 mm 10 mps 658 mmHg 79%
    22:00 +2°C° 0.1 mm 10 mps 658 mmHg 82%
    23:00 +2°C° 0.1 mm 10 mps 658 mmHg 84%

    Tomorrow, 21 January, Monday

    Time Temperature Precipitation Wind Pressure Humidity
    00:00 +2°C° 0.1 mm 10 mps 658 mmHg 87%
    01:00 +2°C° 0 mm 11 mps 658 mmHg 88%
    02:00 +2°C° 0 mm 11 mps 658 mmHg 88%
    03:00 +2°C° 0 mm 12 mps 658 mmHg 89%
    04:00 +1°C° 0 mm 11 mps 659 mmHg 89%
    05:00 -1°C° 0 mm 11 mps 659 mmHg 89%
    06:00 -1°C° 0 mm 11 mps 659 mmHg 88%
    07:00 -1°C° 0 mm 11 mps 659 mmHg 84%
    08:00 +1°C° 0 mm 11 mps 660 mmHg 79%
    09:00 +1°C° 0 mm 11 mps 660 mmHg 75%
    10:00 +2°C° 0 mm 11 mps 660 mmHg 71%
    11:00 +3°C° 0 mm 11 mps 661 mmHg 67%
    12:00 +3°C° 0 mm 11 mps 661 mmHg 64%
    13:00 +3°C° 0.1 mm 10 mps 661 mmHg 63%
    14:00 +3°C° 0.1 mm 10 mps 661 mmHg 63%
    15:00 +3°C° 0.1 mm 9 mps 661 mmHg 63%
    16:00 +2°C° 0.1 mm 8 mps 661 mmHg 69%
    17:00 +2°C° 0.1 mm 7 mps 661 mmHg 75%
    18:00 0°C° 0.1 mm 7 mps 661 mmHg 81%
    19:00 +1°C° 0 mm 6 mps 662 mmHg 84%
    20:00 -1°C° 0 mm 6 mps 662 mmHg 87%
    21:00 0°C° 0 mm 5 mps 662 mmHg 90%
    22:00 0°C° 0 mm 5 mps 662 mmHg 90%
    23:00 -1°C° 0 mm 5 mps 662 mmHg 91%

    Day after tomorrow, 22 January, Tuesday

    Time Temperature Precipitation Wind Pressure Humidity
    00:00 -1°C° 0 mm 5 mps 662 mmHg 92%
    01:00 -2°C° 0 mm 6 mps 662 mmHg 93%
    02:00 -2°C° 0 mm 6 mps 662 mmHg 94%
    03:00 -2°C° 0 mm 6 mps 662 mmHg 95%
    04:00 -2°C° 0 mm 6 mps 662 mmHg 94%
    05:00 -2°C° 0 mm 7 mps 662 mmHg 93%
    06:00 -2°C° 0 mm 7 mps 662 mmHg 92%
    07:00 -2°C° 0 mm 7 mps 662 mmHg 88%
    08:00 -1°C° 0 mm 8 mps 662 mmHg 84%
    09:00 -1°C° 0 mm 8 mps 662 mmHg 80%
    10:00 0°C° 0 mm 9 mps 662 mmHg 73%
    11:00 +1°C° 0 mm 9 mps 662 mmHg 66%
    12:00 +2°C° 0 mm 9 mps 662 mmHg 59%
    13:00 +1°C° 0 mm 10 mps 661 mmHg 57%
    14:00 +1°C° 0 mm 10 mps 661 mmHg 56%
    15:00 +1°C° 0 mm 10 mps 660 mmHg 54%
    16:00 +1°C° 0 mm 9 mps 660 mmHg 58%
    17:00 0°C° 0 mm 8 mps 660 mmHg 63%
    18:00 -1°C° 0 mm 8 mps 660 mmHg 67%
    19:00 -1°C° 0 mm 7 mps 660 mmHg 72%
    20:00 -1°C° 0 mm 7 mps 659 mmHg 76%
    21:00 -2°C° 0 mm 7 mps 659 mmHg 80%
    22:00 -1°C° 0 mm 8 mps 659 mmHg 80%
    23:00 -2°C° 0 mm 10 mps 659 mmHg 81%

    23 January, Wednesday

    Time Temperature Precipitation Wind Pressure Humidity
    00:00 -1°C° 0 mm 11 mps 658 mmHg 81%
    01:00 -1°C° 0.2 mm 11 mps 657 mmHg 83%
    02:00 -1°C° 0.2 mm 12 mps 657 mmHg 85%
    03:00 -1°C° 0.2 mm 13 mps 656 mmHg 86%
    04:00 -1°C° 0.3 mm 13 mps 656 mmHg 86%
    05:00 -1°C° 0.3 mm 13 mps 655 mmHg 86%
    06:00 -1°C° 0.3 mm 14 mps 655 mmHg 86%
    07:00 -1°C° 0.1 mm 14 mps 655 mmHg 81%
    08:00 -1°C° 0.1 mm 14 mps 655 mmHg 75%
    09:00 -1°C° 0.1 mm 15 mps 656 mmHg 70%
    10:00 0°C° 0 mm 15 mps 656 mmHg 63%
    11:00 +1°C° 0 mm 15 mps 655 mmHg 56%
    12:00 +2°C° 0 mm 15 mps 655 mmHg 49%
    13:00 +2°C° 0 mm 16 mps 655 mmHg 50%
    14:00 +3°C° 0 mm 17 mps 654 mmHg 50%
    15:00 +3°C° 0 mm 17 mps 654 mmHg 50%
    16:00 +2°C° 0 mm 17 mps 654 mmHg 56%
    17:00 +2°C° 0 mm 17 mps 654 mmHg 62%
    18:00 +1°C° 0 mm 17 mps 654 mmHg 68%
    19:00 0°C° 0 mm 17 mps 654 mmHg 72%
    20:00 -1°C° 0 mm 18 mps 654 mmHg 75%
    21:00 -1°C° 0 mm 18 mps 654 mmHg 78%
    22:00 0°C° 0 mm 17 mps 653 mmHg 78%
    23:00 0°C° 0 mm 17 mps 653 mmHg 79%

    24 January, Thursday

    Time Temperature Precipitation Wind Pressure Humidity
    00:00 0°C° 0 mm 17 mps 653 mmHg 79%
    01:00 0°C° 0.4 mm 17 mps 652 mmHg 80%
    02:00 -1°C° 0.4 mm 18 mps 652 mmHg 81%
    03:00 -1°C° 0.4 mm 18 mps 652 mmHg 82%
    04:00 -1°C° 1 mm 18 mps 652 mmHg 84%
    05:00 0°C° 1 mm 17 mps 651 mmHg 86%
    06:00 0°C° 1 mm 17 mps 651 mmHg 88%
    07:00 0°C° 0.6 mm 16 mps 652 mmHg 86%
    08:00 0°C° 0.6 mm 16 mps 652 mmHg 84%
    09:00 -2°C° 0.6 mm 16 mps 652 mmHg 82%
    10:00 -1°C° 0.8 mm 15 mps 652 mmHg 84%
    11:00 -2°C° 0.8 mm 13 mps 652 mmHg 85%
    12:00 -3°C° 0.8 mm 12 mps 651 mmHg 87%
    13:00 -3°C° 0.6 mm 12 mps 652 mmHg 85%
    14:00 -3°C° 0.6 mm 12 mps 652 mmHg 84%
    15:00 -5°C° 0.6 mm 12 mps 653 mmHg 82%
    16:00 -4°C° 0.1 mm 11 mps 653 mmHg 80%
    17:00 -5°C° 0.1 mm 10 mps 654 mmHg 78%
    18:00 -6°C° 0.1 mm 9 mps 654 mmHg 76%
    19:00 -6°C° 0 mm 8 mps 655 mmHg 78%
    20:00 -7°C° 0 mm 7 mps 655 mmHg 80%
    21:00 -7°C° 0 mm 7 mps 656 mmHg 82%
    22:00 -7°C° 0 mm 7 mps 656 mmHg 81%
    23:00 -7°C° 0 mm 7 mps 656 mmHg 80%

    25 January, Friday

    Time Temperature Precipitation Wind Pressure Humidity
    00:00 -7°C° 0 mm 7 mps 657 mmHg 79%
    01:00 -7°C° 0 mm 7 mps 657 mmHg 79%
    02:00 -7°C° 0 mm 8 mps 657 mmHg 79%
    03:00 -7°C° 0 mm 8 mps 657 mmHg 79%
    04:00 -7°C° 0 mm 8 mps 657 mmHg 78%
    05:00 -7°C° 0 mm 8 mps 657 mmHg 78%
    06:00 -7°C° 0 mm 7 mps 657 mmHg 78%
    07:00 -7°C° 0 mm 7 mps 658 mmHg 78%
    08:00 -6°C° 0 mm 7 mps 659 mmHg 79%
    09:00 -4°C° 0 mm 7 mps 659 mmHg 79%
    10:00 -3°C° 0 mm 7 mps 660 mmHg 77%
    11:00 -3°C° 0 mm 6 mps 660 mmHg 74%
    12:00 -2°C° 0 mm 6 mps 661 mmHg 72%
    13:00 -1°C° 0 mm 6 mps 661 mmHg 70%
    14:00 -1°C° 0 mm 7 mps 661 mmHg 69%
    15:00 -1°C° 0 mm 7 mps 661 mmHg 67%
    16:00 -2°C° 0 mm 7 mps 661 mmHg 73%
    17:00 -2°C° 0 mm 6 mps 662 mmHg 79%
    18:00 -3°C° 0 mm 6 mps 662 mmHg 85%
    19:00 -4°C° 0 mm 6 mps 663 mmHg 86%
    20:00 -4°C° 0 mm 5 mps 663 mmHg 88%
    21:00 -4°C° 0 mm 5 mps 664 mmHg 90%
    22:00 -4°C° 0 mm 5 mps 664 mmHg 90%
    23:00 -3°C° 0 mm 4 mps 664 mmHg 90%
    Show more